Station GRRT2 - 8771486 - Galveston RR Bridge, TX Image indicating link to RSS feed of recent meteorological observations for station GRRT2


Conditions at GRRT2 as of
(11:48 am CDT)
1648 GMT on 05/28/2024:
     

Click on the graph icon in the table below to see a time series plot of the last five days of that observation.

5-day plot - Wind Direction Wind Direction (WDIR): E ( 80 deg true )
5-day plot - Wind Speed Wind Speed (WSPD): 7.0 kts
5-day plot - Wind Gust Wind Gust (GST): 11.1 kts
5-day plot - Atmospheric Pressure Atmospheric Pressure (PRES):30.01 in
5-day plot - Air Temperature Air Temperature (ATMP): 85.6 °F
5-day plot - Water Temperature Water Temperature (WTMP): 86.9 °F
5-day plot - Wind Speed at 10 Meters Wind Speed at 10 meters (WSPD10M): 7.8 kts
5-day plot - Wind Speed at 20 Meters Wind Speed at 20 meters (WSPD20M): 9.7 kts
5-day plot -  Wind Speed, Wind Gust and Atmospheric Pressure Combined plot of Wind Speed, Gust, and Air Pressure
Previous observations
TIME
(CDT)
5-day plot - Wind Direction
WDIR
 
5-day plot - Wind Speed
WSPD
kts
5-day plot - Wind Gust
GST
kts
5-day plot - Wave Height
WVHT
ft
5-day plot - Dominant Wave Period
DPD
sec
5-day plot - Average Wave Period
APD
sec
5-day plot - Mean Wave Direction
MWD
 
5-day plot - Atmospheric Pressure
PRES
in
5-day plot - Pressure Tendency
PTDY
in
5-day plot - Air Temperature
ATMP
°F
5-day plot - Water Temperature
WTMP
°F
5-day plot - Dew Point
DEWP
°F
5-day plot - Salinity
SAL
psu
5-day plot - Visibility
VIS
nmi
5-day plot - Tide (above MLLW)
TIDE
ft
2024-05-28 11:42 am E 8.0 11.1----30.01- 86.4 86.9----
2024-05-28 11:36 am E 8.9 11.1----30.01- 85.8 86.9----
2024-05-28 11:30 am E 8.9 11.1----30.00- 84.2 86.7----
2024-05-28 11:24 amESE 8.9 11.1----30.01- 84.2 86.7----
2024-05-28 11:18 am E 8.0 11.1----30.01- 85.8 86.7----
2024-05-28 11:12 am E 8.0 9.9----30.01- 84.0 86.7----
2024-05-28 11:06 am E 8.0 12.0----30.01- 84.7 86.7----
2024-05-28 11:00 am E 8.9 12.0----30.00+0.09 84.7 86.7----
2024-05-28 10:54 amESE 8.0 11.1----30.00- 83.5 86.7----
2024-05-28 10:48 amESE 8.0 12.0----29.99- 83.5 86.7----
2024-05-28 10:42 amESE 6.0 12.0----29.98- 83.7 86.7----
2024-05-28 10:36 amESE 8.0 11.1----29.98- 83.3 86.7----
2024-05-28 10:30 amESE 6.0 9.9----29.98- 83.7 86.7----
2024-05-28 10:24 am E 8.0 11.1----29.98- 83.7 86.7----
2024-05-28 10:18 amESE 8.0 12.0----29.98- 83.5 86.7----
2024-05-28 10:12 amESE 8.9 11.1----29.97- 83.7 86.5----
2024-05-28 10:06 am E 8.9 12.0----29.97- 84.4 86.5----
2024-05-28 10:00 am E 7.0 9.9----29.96+0.04 83.8 86.5----
2024-05-28 09:54 am E 7.0 11.1----29.95- 83.5 86.5----
2024-05-28 09:48 amESE 8.9 11.1----29.95- 83.1 86.5----
2024-05-28 09:42 amESE 8.0 14.0----29.95- 82.9 86.5----
2024-05-28 09:36 amESE 8.9 13.0----29.94- 82.6 86.5----
2024-05-28 09:30 amESE 9.9 13.0----29.94- 82.6 86.5----
2024-05-28 09:24 am E 8.0 12.0----29.93- 82.9 86.5----
2024-05-28 09:18 am E 9.9 12.0----29.93- 83.1 86.5----
2024-05-28 09:12 am E 9.9 12.0----29.93- 83.3 86.5----
2024-05-28 09:06 am E 8.9 14.0----29.93- 83.5 86.5----
2024-05-28 09:00 am E 8.9 12.0----29.93+0.01 82.9 86.5----
2024-05-28 08:54 am E 9.9 14.0----29.93- 82.9 86.5----
2024-05-28 08:48 amESE 9.9 13.0----29.93- 82.8 86.5----
2024-05-28 08:42 amESE 11.1 13.0----29.93- 82.8 86.5----
2024-05-28 08:36 am E 11.1 14.0----29.93- 82.8 86.5----
2024-05-28 08:30 amESE 9.9 14.0----29.93- 82.8 86.5----
2024-05-28 08:24 amESE 11.1 13.0----29.92- 82.8 86.5----
2024-05-28 08:18 am E 8.0 12.0----29.92- 82.9 86.5----
2024-05-28 08:12 amESE 8.9 12.0----29.92- 82.8 86.5----
2024-05-28 08:06 am E 6.0 8.9----29.91- 82.9 86.5----
2024-05-28 08:00 amESE 6.0 8.9----29.92-0.01 82.8 86.7----
2024-05-28 07:54 amESE 6.0 8.9----29.92- 82.8 86.7----
2024-05-28 07:48 am E 6.0 8.9----29.92- 82.8 86.7----
2024-05-28 07:42 amESE 8.0 8.9----29.92- 82.6 86.7----
2024-05-28 07:36 amESE 7.0 9.9----29.92- 82.6 86.7----
2024-05-28 07:30 amESE 8.0 9.9----29.92- 82.4 86.7----
2024-05-28 07:24 amESE 7.0 9.9----29.92- 82.6 86.7----
2024-05-28 07:18 amESE 7.0 9.9----29.92- 82.6 86.7----
2024-05-28 07:12 amESE 7.0 8.0----29.92- 82.4 86.7----
2024-05-28 07:06 amESE 6.0 8.9----29.92- 82.2 86.7----
2024-05-28 07:00 amESE 6.0 8.0----29.91-0.02 82.6 86.7----
2024-05-28 06:54 amESE 5.1 8.0----29.91- 82.4 86.7----
2024-05-28 06:48 am E 5.1 6.0----29.92- 82.4 86.7----
2024-05-28 06:42 am SE 4.1 6.0----29.92- 82.4 86.7----
2024-05-28 06:36 am E 4.1 6.0----29.92- 82.4 86.7----
2024-05-28 06:30 amESE 2.9 5.1----29.92- 82.4 86.7----
2024-05-28 06:24 amESE 2.9 5.1----29.92- 82.6 86.7----
2024-05-28 06:18 amESE 4.1 5.1----29.92- 82.4 86.9----
2024-05-28 06:12 amESE 4.1 5.1----29.92- 82.6 86.9----
2024-05-28 06:06 amESE 4.1 5.1----29.92- 82.4 86.9----
2024-05-28 06:00 amESE 4.1 6.0----29.92-0.01 82.4 86.9----
2024-05-28 05:54 amESE 4.1 5.1----29.92- 82.4 86.9----
2024-05-28 05:48 am SE 4.1 7.0----29.92- 82.4 86.9----
2024-05-28 05:42 amESE 5.1 7.0----29.92- 82.2 87.1----
2024-05-28 05:36 amESE 4.1 7.0----29.92- 82.4 87.1----
2024-05-28 05:30 am E 5.1 6.0----29.92- 82.0 87.1----
2024-05-28 05:24 am E 4.1 5.1----29.92- 82.4 87.1----
2024-05-28 05:18 am E 4.1 5.1----29.93- 82.2 87.1----
2024-05-28 05:12 am E 5.1 6.0----29.93- 82.2 87.1----
2024-05-28 05:06 am E 4.1 5.1----29.93- 82.0 87.1----
2024-05-28 05:00 am E 4.1 5.1----29.93-0.03 82.0 87.1----
2024-05-28 04:54 am E 4.1 4.1----29.93- 82.0 87.1----
2024-05-28 04:48 am E 4.1 5.1----29.93- 82.0 87.1----
2024-05-28 04:42 am E 2.9 4.1----29.93- 82.2 87.1----
2024-05-28 04:36 amESE 2.9 4.1----29.93- 82.0 87.1----
2024-05-28 04:30 am SE 2.9 4.1----29.93- 82.0 87.1----
2024-05-28 04:24 am SE 4.1 5.1----29.93- 82.2 87.1----
2024-05-28 04:18 am SE 2.9 5.1----29.94- 82.2 87.1----
2024-05-28 04:12 amSSE 4.1 5.1----29.94- 82.4 87.1----
2024-05-28 04:06 am SE 4.1 6.0----29.94- 82.2 87.3----
2024-05-28 04:00 amSSE 4.1 6.0----29.94-0.03 82.2 87.3----
2024-05-28 03:54 amSSE 5.1 6.0----29.94- 82.2 87.3----
2024-05-28 03:48 amSSE 2.9 5.1----29.94- 82.2 87.3----
2024-05-28 03:42 am S 4.1 5.1----29.94- 82.2 87.3----
2024-05-28 03:36 am S 2.9 5.1----29.94- 82.2 87.3----
2024-05-28 03:30 am S 4.1 6.0----29.94- 82.2 87.3----
2024-05-28 03:24 am S 4.1 5.1----29.94- 82.4 87.3----
2024-05-28 03:18 am S 4.1 5.1----29.93- 82.4 87.3----
2024-05-28 03:12 amSSE 4.1 5.1----29.93- 82.2 87.4----
2024-05-28 03:06 am SE 4.1 5.1----29.93- 82.2 87.4----
2024-05-28 03:00 am SE 4.1 5.1----29.93+0.02 82.0 87.4----
2024-05-28 02:54 amSSE 4.1 5.1----29.94- 82.4 87.4----
2024-05-28 02:48 amSSE 5.1 6.0----29.94- 82.4 87.4----
2024-05-28 02:42 am S 6.0 7.0----29.95- 82.4 87.4----
2024-05-28 02:36 amSSE 6.0 7.0----29.95- 82.6 87.4----
2024-05-28 02:30 am S 6.0 8.0----29.95- 82.6 87.4----
2024-05-28 02:24 am S 6.0 8.0----29.96- 82.8 87.4----
2024-05-28 02:18 am S 8.0 8.9----29.96- 82.8 87.4----
2024-05-28 02:12 am S 7.0 8.0----29.96- 82.6 87.4----
2024-05-28 02:06 am S 6.0 8.0----29.96- 82.6 87.4----
2024-05-28 02:00 am S 6.0 8.0----29.96+0.02 82.9 87.4----
2024-05-28 01:54 am S 7.0 8.0----29.96- 82.9 87.4----
2024-05-28 01:48 am S 4.1 6.0----29.96- 82.8 87.4----
2024-05-28 01:42 am S 4.1 5.1----29.97- 82.8 87.4----
2024-05-28 01:36 am S 4.1 6.0----29.96- 82.9 87.4----
2024-05-28 01:30 amSSE 5.1 6.0----29.96- 82.9 87.4----
2024-05-28 01:24 amSSE 6.0 8.0----29.96- 82.9 87.4----
2024-05-28 01:18 am S 7.0 9.9----29.96- 83.1 87.4----
2024-05-28 01:12 amSSE 8.0 11.1----29.96- 82.9 87.4----
2024-05-28 01:06 am S 8.9 9.9----29.96- 83.3 87.4----
2024-05-28 01:00 am S 8.0 9.9----29.96+0.04 83.1 87.4----
2024-05-28 12:54 amSSE 8.0 9.9----29.96- 83.1 87.4----
2024-05-28 12:48 amSSE 8.9 13.0----29.95- 83.1 87.6----
2024-05-28 12:42 amSSE 8.9 12.0----29.95- 83.5 87.6----
2024-05-28 12:36 amSSE 8.9 11.1----29.93- 83.5 87.6----
2024-05-28 12:30 amSSE 5.1 7.0----29.94- 83.3 87.6----
2024-05-28 12:24 amESE 5.1 11.1----29.94- 83.3 87.6----
2024-05-28 12:18 amESE 7.0 15.0----29.92- 83.1 87.6----
2024-05-28 12:12 am E 11.1 15.9----29.90- 83.1 87.6----
2024-05-28 12:06 am E 11.1 15.0----29.90- 83.3 87.8----
2024-05-28 12:00 amESE 9.9 13.0----29.91+0.02 83.1 87.8----
2024-05-27 11:54 pm SE 8.9 11.1----29.93- 83.3 87.8----
2024-05-27 11:48 pm SE 8.9 12.0----29.94- 83.3 87.8----
2024-05-27 11:42 pm SE 8.0 12.0----29.94- 83.3 87.8----
2024-05-27 11:36 pm SE 8.0 8.9----29.94- 83.3 87.8----
2024-05-27 11:30 pm SE 7.0 8.9----29.94- 83.5 87.8----
2024-05-27 11:24 pm SE 6.0 9.9----29.94- 83.5 88.0----
2024-05-27 11:18 pm SE 7.0 9.9----29.93- 83.3 88.0----
2024-05-27 11:12 pm SE 7.0 11.1----29.93- 83.5 88.0----
2024-05-27 11:06 pm SE 8.0 11.1----29.94- 83.3 88.0----
2024-05-27 11:00 pm SE 6.0 9.9----29.94+0.07 83.7 88.0----
2024-05-27 10:54 pm SE 8.0 9.9----29.93- 83.5 88.0----
2024-05-27 10:48 pm SE 8.0 8.9----29.93- 83.5 88.0----
2024-05-27 10:42 pm SE 6.0 8.9----29.93- 83.5 88.2----
2024-05-27 10:36 pm SE 6.0 8.0----29.94- 83.5 88.2----
2024-05-27 10:30 pm SE 6.0 8.9----29.94- 83.5 88.2----
2024-05-27 10:24 pm SE 7.0 8.9----29.94- 83.3 88.2----
2024-05-27 10:18 pm SE 6.0 8.9----29.94- 83.3 88.2----
2024-05-27 10:12 pm SE 7.0 11.1----29.93- 83.5 88.2----
2024-05-27 10:06 pm SE 7.0 9.9----29.93- 83.5 88.2----
2024-05-27 10:00 pm SE 7.0 9.9----29.92+0.07 83.5 88.2----
2024-05-27 09:54 pm SE 8.0 11.1----29.91- 83.5 88.2----
2024-05-27 09:48 pm SE 8.0 12.0----29.91- 83.7 88.2----
2024-05-27 09:42 pmESE 8.0 12.0----29.91- 83.7 88.2----
2024-05-27 09:36 pmESE 8.9 11.1----29.91- 83.5 88.3----
2024-05-27 09:30 pmESE 9.9 11.1----29.90- 83.5 88.3----
2024-05-27 09:24 pmESE 8.9 12.0----29.90- 83.7 88.3----
2024-05-27 09:18 pmESE 9.9 12.0----29.90- 83.7 88.3----
2024-05-27 09:12 pmESE 8.0 12.0----29.89- 83.7 88.3----
2024-05-27 09:06 pmESE 9.9 12.0----29.89- 83.7 88.3----
2024-05-27 09:00 pmESE 7.0 9.9----29.89+0.06 84.0 88.3----
2024-05-27 08:54 pmESE 8.9 11.1----29.89- 83.8 88.3----
2024-05-27 08:48 pmESE 8.9 11.1----29.88- 83.8 88.3----
2024-05-27 08:42 pmESE 8.0 9.9----29.88- 84.0 88.3----
2024-05-27 08:36 pmESE 8.9 12.0----29.88- 84.0 88.3----
2024-05-27 08:30 pmESE 8.9 9.9----29.88- 84.2 88.3----
2024-05-27 08:24 pmESE 7.0 9.9----29.88- 84.4 88.5----
2024-05-27 08:18 pmESE 8.0 8.9----29.88- 84.4 88.5----
2024-05-27 08:12 pmESE 8.0 11.1----29.88- 84.4 88.5----
2024-05-27 08:06 pmESE 8.0 9.9----29.87- 84.4 88.5----
2024-05-27 08:00 pmESE 8.0 9.9----29.87- 84.4 88.5----
2024-05-27 07:54 pmESE 8.0 9.9----29.87- 84.4 88.5----
2024-05-27 07:48 pmESE 8.0 12.0----29.87- 84.6 88.5----
2024-05-27 07:42 pm SE 8.9 11.1----29.86- 84.4 88.5----
2024-05-27 07:36 pmESE 8.0 12.0----29.86- 84.6 88.5----
2024-05-27 07:30 pmESE 8.9 12.0----29.86- 84.6 88.3----
2024-05-27 07:24 pmESE 9.9 12.0----29.85- 84.4 88.3----
2024-05-27 07:18 pmESE 7.0 9.9----29.85- 84.9 88.3----
2024-05-27 07:12 pmESE 8.0 9.9----29.85- 84.7 88.3----
2024-05-27 07:06 pmESE 8.9 11.1----29.85- 84.7 88.3----
2024-05-27 07:00 pmESE 7.0 9.9----29.85+0.00 85.1 88.3----
2024-05-27 06:54 pm SE 7.0 9.9----29.84- 85.1 88.2----
2024-05-27 06:48 pmESE 7.0 9.9----29.84-- 88.0----
2024-05-27 06:42 pmESE 8.0 9.9----29.84-- 87.8----
2024-05-27 06:36 pmESE 8.0 12.0----29.83-- 87.8----
2024-05-27 06:30 pmESE 8.0 11.1----29.83- 85.1 87.6----
2024-05-27 06:24 pmESE 6.0 9.9----29.83- 85.5 87.4----
2024-05-27 06:18 pmESE 8.0 9.9----29.83- 85.5 87.4----
2024-05-27 06:12 pmESE 7.0 9.9----29.83- 85.5 87.4----
2024-05-27 06:06 pm SE 7.0 9.9----29.83- 85.5 87.4----
2024-05-27 06:00 pm SE 8.0 11.1----29.83-0.03 85.5 87.4----
2024-05-27 05:54 pmESE 7.0 9.9----29.83- 85.5 87.6----
2024-05-27 05:48 pmESE 7.0 9.9----29.83- 85.6 87.6----
2024-05-27 05:42 pm SE 6.0 8.9----29.83- 85.8 87.8----
2024-05-27 05:36 pmESE 7.0 8.0----29.83- 85.6 88.0----
2024-05-27 05:30 pm SE 6.0 11.1----29.83- 85.6 88.2----
2024-05-27 05:24 pm SE 6.0 9.9----29.83- 85.6 88.2----
2024-05-27 05:18 pm SE 7.0 9.9----29.84- 85.5 88.3----
2024-05-27 05:12 pmESE 7.0 8.9----29.84- 85.5 88.3----
2024-05-27 05:06 pmESE 6.0 9.9----29.84- 85.5 88.3----
2024-05-27 05:00 pm--------- 85.6 88.3----
2024-05-27 04:54 pm--------- 85.8 88.3----
2024-05-27 04:48 pm SE 7.0 9.9----29.85- 85.6 88.3----
2024-05-27 04:42 pm SE 8.0 9.9----29.85- 85.8 88.2----
2024-05-27 04:36 pm SE 7.0 9.9----29.85- 85.6 88.2----
2024-05-27 04:30 pmESE 8.0 9.9----29.85-- 88.0----
2024-05-27 04:24 pm SE 7.0 8.9----29.85-- 88.0----
2024-05-27 04:18 pm SE 8.0 9.9----29.85- 85.8 87.8----
2024-05-27 04:12 pmESE 7.0 8.9----29.85- 85.8 87.8----
2024-05-27 04:06 pm SE 7.0 8.9----29.85- 85.8 87.6----
2024-05-27 04:00 pm SE 7.0 9.9----29.85-0.04 85.8 87.6----
2024-05-27 03:54 pm SE 6.0 8.9----29.85- 85.8 87.4----
2024-05-27 03:48 pm SE 6.0 8.9----29.86- 85.8 87.4----
2024-05-27 03:42 pm SE 6.0 8.0----29.86- 85.6 87.3----
2024-05-27 03:36 pm SE 5.1 8.0----29.86- 85.8 87.1----
2024-05-27 03:30 pm-------29.86- 85.6 86.9----
2024-05-27 03:24 pm-------29.86- 86.0 86.9----
2024-05-27 03:18 pm SE 6.0 8.0----29.87- 85.8 86.5----
2024-05-27 03:12 pm SE 5.1 8.0----29.87- 86.0 86.4----
2024-05-27 03:06 pm SE 6.0 8.9----29.87- 85.8 86.2----
2024-05-27 03:00 pm SE 5.1 7.0----29.87-0.02 86.0 86.2----
2024-05-27 02:54 pm SE 5.1 7.0----29.87- 86.0 86.2----
2024-05-27 02:48 pm SE 5.1 7.0------ 86.0 86.2----
2024-05-27 02:42 pmESE 6.0 8.0------ 86.0 86.2----
2024-05-27 02:36 pm SE 5.1 7.0------ 86.0 86.4----
2024-05-27 02:30 pm SE 2.9 6.0----29.87- 86.2 86.4----
2024-05-27 02:24 pm SE 5.1 6.0----29.87- 86.0 86.5----
2024-05-27 02:18 pmESE 4.1 7.0----29.87- 86.0 86.7----
2024-05-27 02:12 pmESE 4.1 6.0----29.88- 86.0 86.7----
2024-05-27 02:06 pm SE 4.1 6.0----29.88- 86.0 86.7----
2024-05-27 02:00 pmESE 4.1 5.1----29.88+0.00 86.0 86.5----
2024-05-27 01:54 pm SE 2.9 6.0----29.88- 85.8 86.4----
2024-05-27 01:48 pm SE 2.9 5.1----29.88- 85.8 86.4----
2024-05-27 01:42 pm SE 1.9 6.0----29.88- 86.2 86.5----
2024-05-27 01:36 pm SE 4.1 6.0----29.88- 86.0 86.5----
2024-05-27 01:30 pm SE 1.9 4.1----29.88- 86.2 86.5----
2024-05-27 01:24 pm SE 2.9 5.1----29.88- 86.2 86.5----
2024-05-27 01:18 pm SE 4.1 6.0----29.88- 85.8 86.5----
2024-05-27 01:12 pm SE 2.9 6.0----29.89- 85.6 86.5----
2024-05-27 01:06 pm SE 4.1 6.0----29.89- 85.6 86.5----
2024-05-27 01:00 pm SE 4.1 6.0----29.89+0.01 85.5 86.5----
2024-05-27 12:54 pmSSE 4.1 7.0----29.89- 85.6 86.7----
2024-05-27 12:48 pmSSE 5.1 7.0----29.89-- 86.5----
2024-05-27 12:42 pmSSE 5.1 7.0----29.89-- 86.4----
2024-05-27 12:36 pm SE 4.1 7.0----29.89-- 86.4----
2024-05-27 12:30 pmSSE 5.1 7.0----29.89- 85.3 86.4----
2024-05-27 12:24 pmSSE 5.1 6.0----29.89- 85.5 86.2----
2024-05-27 12:18 pmSSE 2.9 6.0----29.89- 85.6 86.2----
2024-05-27 12:12 pmSSE 5.1 7.0----29.89- 85.6 86.2----
2024-05-27 12:06 pmSSE 4.1 6.0----29.89- 85.5 86.2----
2024-05-27 12:00 pmSSE 4.1 6.0----29.89+0.03 85.5 86.2----
2024-05-27 11:54 amSSE 4.1 6.0----29.89- 85.3 86.2----